ONEWEB-0627, 55168

Orbit data source: Space-Track

ONEWEB-0627, 55168 is a payload satellite owned by One Web (NAA) (UK) in LEO that was launched on Tue, 10 Jan 2023 UTC via an FALCON 9 launch vehicle from the Air Force Eastern Test Range (AFETR). Payload-class satellites include a variety of spacecraft equipped with specific instruments for various scientific and technological missions. These include communications satellites like Starlink; space stations such as the ISS; scientific satellites like the Hubble; Earth observation satellites from companies like Planet Labs, Umbra, and HawkEye 360; GPS; miniature CubeSats for education and research; and military/defense satellites.

Loading next visibility...
Identifier
55168, 2023-004AE
Orbit
LEO
Country
Flag of UKUK
Related business
Manufacturer
One Web
Mission
Operational Commercial Communications
Bus & Motor
ARROW, Unknown motor
Mass
148 kg wet, ~140 kg dry
Launch date (UTC)
2023-01-10 (3 years ago)
Launch vehicle
FALCON 9
Launch site
Air Force Eastern Test Range (AFETR)
Object type
Payload
Rocket body
Debris
Shape & HBR
Trap Box + 2 Pan, 6.7 m
Radar Cross Section
3.464 m², Large (>1 m²)

Expand to show TLE details & history
Last TLE update: 3 days ago

TLE from 3 days ago
0 ONEWEB-0627
1 55168U 23004AE  26170.94760710 -.00000001  00000-0 -36092-4 0  9991
2 55168  87.9134   5.3251 0002242  79.1586 280.9797 13.17648672167945
Epoch: 2026-06-19T22:44Z
TLE epoch observation values (Epoch: 2026-06-19T22:44:33.253Z)
Latitude
-0.0001°
Longitude
116.01727°
Altitude
1,196.29 km
Speed
7.256 km/s
True Right ascension
00h 21m 18s
True Declination
0° 00' 00"
Sunlit
Object was in daylight at epoch
Visualization orbit readout
Latitude
Unknown
Longitude
Unknown
Altitude
Unknown
Speed
Unknown
Apparent Right ascension
Unknown
Apparent Declination
Unknown
Sunlit
N/A
Visualization observer readout
Local Sidereal Time
00:39:14
Azimuth
Unknown
Elevation
Unknown
Doppler factor
Unknown
Orbital elements
Apogee altitude
1,192.52 km
Perigee altitude
1,189.126 km
Semi-major axis
7,568.96 km
Eccentricity
0.00022
Inclination
87.9134°
RAAN
5.3251°
Arg. of periapsis
79.1586°
True anomaly
280.95448°
Mean anomaly
280.9797°
Eccentric anomaly
280.96709°
Mean motion
3.29601 °/min
Orbital period
109.22 mins
BSTAR
-0.000036092
Loading maneuver chart data...
Computing Atmospheric mass density...
Loading historical data...
Loading historical data...
Loading historical data...
Loading historical data...
Loading historical data...
Loading historical data...
Loading historical data...

Documentation

Showing up to 5 results
|